Location: Red Bud (historical)
(37.7759°N, 88.4053°W)
Time: 22:39:02
(UTC+00:00)

Tiangong - Pass Details

Date: 24 June 2021
Orbit: 374 x 386 km, 41.5° (Epoch: 27 July)

Event Time Altitude Azimuth Distance (km) Brightness Sun altitude
Exits shadow 08:04:56 48° 49° (NE) 505 2.0 -21.7°
Drops below altitude 10° 08:07:21 10° 68° (ENE) 1,391 4.6 -21.5°
Sets 08:09:26 0° 71° (ENE) 2,247 5.8 -21.3°
